TIANWANG 1B (TW-1B)
1 40927U 15051C   19099.52766406  .00012226  00000-0  19974-3 0  9994
2 40927  97.1474 145.3311 0006456 285.2662 180.8503 15.52673435199124
TIANWANG 1A (TW-1A)
1 40928U 15051D   19099.47667155  .00004140  00000-0  10454-3 0  9990
2 40928  97.1534 132.3254 0010059 338.2427 132.0972 15.40328357198367
LAPAN A2
1 40931U 15052B   19098.83379345  .00000698  00000-0  80790-5 0  9991
2 40931   5.9981 201.9629 0013380 238.2108 121.6833 14.76603172190774
LQSAT
1 40958U 15057A   19099.46402840  .00000019  00000-0  10566-4 0  9992
2 40958  97.9041 170.5349 0019637 105.2370 255.1017 14.73072128188464
CHUBUSAT 2
1 41338U 16012B   19098.49550926  .00000383  00000-0  23116-4 0  9997
2 41338  31.0024 237.2207 0013630 118.0817 242.1198 15.00118778172211
CHUBUSAT 3
1 41339U 16012C   19099.47134192  .00000440  00000-0  27522-4 0  9999
2 41339  31.0134 229.2048 0013289 134.1959 225.9744 15.00297899172357
OUFTI-1
1 41458U 16025C   19099.47766776  .00001465  00000-0  79255-4 0  9992
2 41458  98.1034 182.7654 0166005 232.5672 126.0350 15.05546211162014
E-STAR-2
1 41459U 16025D   19099.47780887  .00001274  00000-0  69935-4 0  9994
2 41459  98.1043 182.4723 0167118 233.7693 124.7969 15.05208851161982
AAUSAT 4
1 41460U 16025E   19099.47262471  .00001942  00000-0  10220-3 0  9994
2 41460  98.0978 183.5379 0157495 227.3367 131.4501 15.06979732162097
NUSAT 1
1 41557U 16033B   19099.47388896  .00001768  00000-0  69340-4 0  9994
2 41557  97.4179 187.3933 0013973 179.3122 180.8138 15.27015118159378
BEESAT 4
1 41619U 16040W   19099.14926156  .00001492  00000-0  66561-4 0  9998
2 41619  97.3748 162.6677 0009692 271.3926  88.6200 15.22914578143121
PRATHAM
1 41783U 16059A   19099.15348684  .00000049  00000-0  18758-4 0  9997
2 41783  98.0753 160.2647 0032365 244.7084 115.0764 14.62982100135232
ALSAT 1N
1 41789U 16059G   19099.40724345  .00000097  00000-0  27481-4 0  9999
2 41789  98.0774 162.3559 0027134 233.1604 126.7112 14.64228012135361
NAYIF 1
1 42017U 17008BX  19099.44222053  .00002085  00000-0  85617-4 0  9996
2 42017  97.4088 167.2456 0007732  65.4640 294.7403 15.25303960119214
LILACSAT-1
1 42725U 98067ME  19087.71781172  .15670676  12603-4  45746-3 0  9992
2 42725  51.6064 319.7683 0009359 299.6698  60.5570 16.44549673105565
MAX VALIER SAT
1 42778U 17036P   19099.11299986  .00001104  00000-0  51488-4 0  9994
2 42778  97.3623 158.3089 0014176 110.3686 249.9074 15.21864365 99507
